Regional Weather Roundup
Issued by NWS

Home | Current Version | Previous Version | Text Only | Print | Product List | Glossary On
Versions: 1 2 3 4 5 6 7 8 9 10 11 12 13 14 15 16 17 18 19 20 21 22 23 24 25 26 27 28 29 30 31 32 33 34 35 36 37 38 39 40 41 42 43 44 45 46 47 48 49 50
000
ASUS43 KMKX 310721
RWRWI

WISCONSIN REGIONAL WEATHER ROUNDUP
NATIONAL WEATHER SERVICE MILWAUKEE/SULLIVAN WI
200 AM CDT WED AUG 31 2016

NOTE: "FAIR" INDICATES FEW OR NO CLOUDS BELOW 12,000 FEET WITH NO
SIGNIFICANT WEATHER AND/OR OBSTRUCTIONS TO VISIBILITY.

WIZ001-002-006>008-014>016-023>028-310800-
NORTHWEST WISCONSIN

CITY           SKY/WX    TMP DP  RH WIND       PRES   REMARKS
SUPERIOR ARPT  PTCLDY    46  46 100 CALM      30.18S
ASHLAND        CLEAR     56  50  80 NW7       30.17R
HAYWARD        CLEAR     49  47  93 CALM      30.19R
SIREN          CLEAR     52  50  95 CALM      30.19F
CUMBERLAND     CLEAR     55  52  88 CALM      30.19F
RICE LAKE      CLEAR     52  51  95 CALM      30.20S
CHETEK         NOT AVBL
LADYSMITH      CLEAR     54  51  92 N5        30.20R
EAU CLAIRE     CLEAR     54  52  93 CALM      30.16R
MENOMONIE      CLEAR     57  56  94 CALM      30.18S
NEW RICHMOND   CLEAR     55  55  98 CALM      30.19S
OSCEOLA        CLEAR     55  55 100 CALM      30.21S
$$

WIZ003>005-009-010-017-018-310800-
NORTH CENTRAL WISCONSIN

CITY           SKY/WX    TMP DP  RH WIND       PRES   REMARKS
MANITOWISH WTR NOT AVBL
ARBOR VITAE    CLEAR     52  50  94 CALM      30.16S
WOODRUFF       CLEAR     52  50  94 CALM      30.16S
RHINELANDER    CLEAR     49  49 100 CALM      30.17S
EAGLE RIVER    FOG       47  47 100 CALM      30.15F VSB 1/2
LAND O LAKES   CLEAR     45  45 100 CALM      30.17S
PHILLIPS       CLEAR     50  50 100 CALM      30.17S
TOMAHAWK       CLEAR     44  43  95 CALM      30.17S
MEDFORD        CLEAR     48  48 100 CALM      30.16S FOG
MERRILL        CLEAR     49  48  97 CALM      30.17S
$$

WIZ029-030-035-036-043>047-310800-
CENTRAL WISCONSIN

CITY           SKY/WX    TMP DP  RH WIND       PRES   REMARKS
WAUSAU         CLEAR     55  51  86 CALM      30.14S
MOSINEE        CLEAR     55  50  82 CALM      30.16F
MARSHFIELD     CLEAR     56  52  86 CALM      30.15F
STEVENS POINT  CLEAR     52  50  93 CALM      30.15F
WAUPACA        CLEAR     61  57  88 NW5       30.13S
WAUTOMA        CLEAR     63  56  78 N6        30.13S
WISC RAPIDS    CLEAR     59  52  77 NE5       30.15F
CAMP DOUGLAS   CLEAR     59  55  85 NW3       30.14S
$$

WIZ011>013-019>022-031-037>040-048>050-310800-
NORTHEAST WISCONSIN

CITY           SKY/WX    TMP DP  RH WIND       PRES   REMARKS
ANTIGO         CLEAR     50  49  97 CALM      30.16S
SHAWANO        CLEAR     61  56  83 N3        30.14S
OCONTO         NOT AVBL
STURGEON BAY   CLEAR     63  55  75 NE8       30.12S
GREEN BAY      CLEAR     61  61 100 N8        30.11F
MANITOWOC      MOCLDY    66  58  75 N5        30.10F
APPLETON       CLEAR     63  61  94 N8        30.10F
CLINTONVILLE   CLEAR     59  54  82 CALM      30.13S
OSHKOSH        CLOUDY    69  62  78 NE9G21    30.10S
$$

WIZ032>034-041-042-053>061-310800-
SOUTHWEST WISCONSIN

CITY           SKY/WX    TMP DP  RH WIND       PRES   REMARKS
LA CROSSE      CLOUDY    64  61  90 N3        30.14S
SPARTA         CLOUDY    54  54 100 CALM      30.15S
VIROQUA        CLOUDY    60  58  91 N5        30.15S
BOSCOBEL       CLOUDY    62  61  96 CALM      30.12S FOG
PRAIRIE DU CHI CLEAR     64  61  91 CALM      30.12S
PLATTEVILLE    CLEAR     65  65 100 N5        30.12F
$$

WIZ056-057-062-063-064-067-068-310800-
SOUTH CENTRAL WISCONSIN

CITY           SKY/WX    TMP DP  RH WIND       PRES   REMARKS
REEDSBURG      NOT AVBL
BARABOO/DELLS  PTCLDY    64  58  80 NE3       30.12S
LONE ROCK      PTCLDY    66  62  87 VRB3      30.12S
MINERAL POINT  CLEAR     66  64  94 N6        30.12S
MADISON        PTCLDY    67  63  87 N7        30.09F
MIDDLETON      CLEAR     66  64  93 N5        30.10F
WATERTOWN      CLEAR     67  65  94 N5        30.08F
MONROE         PTCLDY    68  63  83 N7        30.10S
JANESVILLE     CLEAR     66  66 100 N5        30.07F
$$

WIZ051-052-058>065-066-070>072-310800-
SOUTHEAST WISCONSIN

CITY           SKY/WX    TMP DP  RH WIND       PRES   REMARKS
MILWAUKEE      CLOUDY    70  64  81 N17G23    30.05S
WAUKESHA       CLEAR     64  63  94 N3        30.09R
MILWAUKEE/TIMM PTCLDY    68  63  83 N15G21    30.08R
RACINE         CLOUDY    69  66  90 N16G26    30.07R
BURLINGTON     PTCLDY    67  65  94 N6        30.06S
KENOSHA        MOCLDY    70  67  90 N6        30.05S
FOND DU LAC    CLOUDY    70  64  81 NE14      30.10R
SHEBOYGAN      CLOUDY    67  58  72 N13G21    30.09S
WEST BEND      CLOUDY    66  61  82 NE12G18   30.09S
JUNEAU         PTCLDY    66  62  85 N6        30.10S
$$

LSZ147-162-310800-
LAKE SUPERIOR

STATION/POSITION TIME  TEMP    WIND        PRES    WAVE
                       AIR SEA DIR/SP/G            HT/PER
                 (UTC) (F)     (DEG/KT/KT) (MB)    (FT/S)
W MID LAKE BUOY  0650   67 68  350/ 10/ 12 1019.8S   1
DEVILS ISLAND    0700   65     350/ 12/ 13 1021.2R
SAXON HARBOR     0640   58     190/  4/  8 1021.0R
$$

LMZ867-665-643>646-310800-
LAKE MICHIGAN

STATION/POSITION TIME  TEMP    WIND        PRES    WAVE
                       AIR SEA DIR/SP/G            HT/PER
                 (UTC) (F)     (DEG/KT/KT) (MB)    (FT/S)
CHAMBERS ISLAND  0600   67     340/ 12/ 14 1019.6R
S GREEN BAY BUOY 0700   67 72   20/ 12/ 16 1019.0
N MID LAKE BUOY  0650   67 71  350/ 14/ 16 1018.3F   2/ 4
NORTHPORT PIER   0600   67      10/  9/ 11 1019.6R
SISTER BAY       0607   64      CALM  /  3   N/A
ALGOMA LAKESHORE 0600          360/  6/  9   N/A
KEWAUNEE LAKESHO 0600   66     360/  7/ 12 1019.0R
SHEBOYGAN LAKESH 0700   64      30/ 17/ 18 1018.4R
PORT WASHINGTON  0640   69     360/  7/ 12 1019.0R
ATWATER BUOY     0700   67     360/ 17/ 23   N/A
MILWAUKEE LAKESH 0610   72     350/ 15/ 21   N/A
S MID LAKE BUOY  0650   74 75  290/ 10/ 12 1015.8F   0
KENOSHA   LAKESH 0700   72     340/ 10/ 13 1016.9S
$$

TC  - TEMPERATURE IN CELSIUS
VSB - VISIBILITY IN STATUTE MILES
WCI - WIND CHILL INDEX
HX  - HEAT INDEX





USA.gov is the U.S. government's official web portal to all federal, state and local government web resources and services.